SCP
0 0 0 0 0 0 0 0 0 0 0 0 0 0 0 0 0 0 0 0 0 0
0 0 0 0 0 0 0 0 0 0 0 0 0 0 0 0 0 0 0 0 0 0
0 0 0 0 0 0 0 0 0 0 0 0 0 0 0 0 0 0 0 0 0 0
0 0 0 0 0 0 0 0 0 0 0 0 0 0 0 0 0 0 0 0 0 0
0 0 0 0 0 0 0 0 0 0 0 0 0 0 0 0 0 0 0 0 0 0
0 0 0 0 0 0 0 0 0 0 0 0 0 0 0 0 0 0 0 0 0 0
0 0 0 0 0 0 0 0 0 0 0 0 0 0 0 0 0 0 0 0 0 0
0 0 0 0 0 0 0 0 0 0 0 0 0 0 0 0 0 0 0 0 0 0
0 0 0 0 0 0 0 0 0 0 0 0 0 0 0 0 0 0 0 0 0 0
0 0 0 0 0 0 0 0 0 0 0 0 0 0 0 0 0 0 0 0 0 0
0 0 0 0 0 0 0 0 0 0 0 0 0 0 0 0 0 0 0 0 0 0
0 0 0 0 0 0 0 0 0 0 0 0 0 0 0 0 0 0 0 0 0 0
0 0 0 0 0 0 0 0 0 0 0 0 0 0 0 0 0 0 0 0 0 0
0 0 0 0 0 0 0 0 0 0 0 0 0 0 0 0 0 0 0 0 0 0
Wind_Speed_500mb
19 25 31 33 35 36 35 29 26 24 21 18 16 15 14 14 14 16 19 22 22 26
18 22 25 25 24 21 19 16 13 11 9 10 9 9 10 10 9 10 10 12 13 13
16 17 17 17 16 15 14 13 12 12 10 9 9 8 7 7 5 5 5 5 9 11
19 19 17 16 15 15 14 14 14 13 12 10 7 6 4 4 3 2 5 6 8 12
22 21 20 19 19 19 19 18 17 15 12 10 6 4 3 6 9 11 14 19 19 22
28 26 24 23 22 22 22 22 22 18 14 11 8 7 7 8 11 13 14 16 19 25
33 30 27 24 24 25 27 26 24 20 17 14 13 14 14 12 10 10 13 18 23 28
38 35 33 33 32 31 29 28 26 23 20 17 15 12 11 9 8 10 14 18 24 28
43 40 38 35 33 31 29 27 25 23 22 17 14 12 11 8 9 12 14 17 21 26
47 44 39 35 33 32 31 29 28 25 22 17 13 10 7 6 7 11 14 17 19 23
50 46 42 39 37 37 35 33 29 25 21 16 10 8 3 3 6 9 13 17 19 21
51 48 46 43 37 39 37 34 32 27 22 16 10 8 3 3 6 9 12 15 19 23
53 49 46 39 43 41 38 34 31 28 23 18 12 9 8 6 10 10 12 15 18 24
51 46 42 41 42 41 39 34 30 27 22 17 12 9 10 15 16 14 16 17 20 24
Wind_Direction_500mb
220 231 239 248 252 255 255 254 251 250 245 242 245 250 253 258 260 259 260 261 272 277
225 223 225 227 228 228 223 220 216 220 222 228 234 237 233 241 250 257 264 277 282 300
204 200 200 198 197 195 196 198 206 217 226 235 238 240 246 257 260 277 300 319 329 325
198 194 193 195 202 209 217 223 229 239 242 237 228 222 198 146 116 94 72 48 32 32
208 207 210 216 222 223 225 228 232 233 235 240 229 188 139 93 75 70 60 51 34 28
217 218 219 222 226 230 234 231 227 226 224 217 190 152 120 96 81 69 51 33 21 15
222 222 223 226 230 233 230 228 232 230 219 192 164 148 131 120 97 64 36 20 10 5
223 222 229 235 236 234 233 234 230 218 202 183 164 150 128 106 74 43 28 15 2 358
226 232 232 232 233 232 226 219 215 210 202 185 167 137 102 76 43 23 9 4 357 346
228 228 229 231 228 226 221 214 211 206 203 199 183 143 104 54 15 1 354 349 345 336
227 229 227 225 225 225 219 213 211 209 206 203 198 173 134 19 355 347 336 334 332 329
226 225 222 221 220 223 217 212 209 208 207 209 217 227 207 339 336 333 331 331 328 330
221 222 221 216 222 217 214 212 212 210 207 210 224 251 286 316 334 333 323 323 331 337
222 217 217 217 218 216 213 212 216 214 213 214 225 262 300 315 318 326 331 326 324 327
Wind_Speed_850mb
19 25 31 33 35 36 35 29 26 24 21 18 16 15 14 14 14 16 19 22 22 26
18 22 25 25 24 21 19 16 13 11 9 10 9 9 10 10 9 10 10 12 13 13
16 17 17 17 16 15 14 13 12 12 10 9 9 8 7 7 5 5 5 5 9 11
19 19 17 16 15 15 14 14 14 13 12 10 7 6 4 4 3 2 5 6 8 12
22 21 20 19 19 19 19 18 17 15 12 10 6 4 3 6 9 11 14 19 19 22
28 26 24 23 22 22 22 22 22 18 14 11 8 7 7 8 11 13 14 16 19 25
33 30 27 24 24 25 27 26 24 20 17 14 13 14 14 12 10 10 13 18 23 28
38 35 33 33 32 31 29 28 26 23 20 17 15 12 11 9 8 10 14 18 24 28
43 40 38 35 33 31 29 27 25 23 22 17 14 12 11 8 9 12 14 17 21 26
47 44 39 35 33 32 31 29 28 25 22 17 13 10 7 6 7 11 14 17 19 23
50 46 42 39 37 37 35 33 29 25 21 16 10 8 3 3 6 9 13 17 19 21
51 48 46 43 37 39 37 34 32 27 22 16 10 8 3 3 6 9 12 15 19 23
53 49 46 39 43 41 38 34 31 28 23 18 12 9 8 6 10 10 12 15 18 24
51 46 42 41 42 41 39 34 30 27 22 17 12 9 10 15 16 14 16 17 20 24
Wind_Direction_850mb
220 231 239 248 252 255 255 254 251 250 245 242 245 250 253 258 260 259 260 261 272 277
225 223 225 227 228 228 223 220 216 220 222 228 234 237 233 241 250 257 264 277 282 300
204 200 200 198 197 195 196 198 206 217 226 235 238 240 246 257 260 277 300 319 329 325
198 194 193 195 202 209 217 223 229 239 242 237 228 222 198 146 116 94 72 48 32 32
208 207 210 216 222 223 225 228 232 233 235 240 229 188 139 93 75 70 60 51 34 28
217 218 219 222 226 230 234 231 227 226 224 217 190 152 120 96 81 69 51 33 21 15
222 222 223 226 230 233 230 228 232 230 219 192 164 148 131 120 97 64 36 20 10 5
223 222 229 235 236 234 233 234 230 218 202 183 164 150 128 106 74 43 28 15 2 358
226 232 232 232 233 232 226 219 215 210 202 185 167 137 102 76 43 23 9 4 357 346
228 228 229 231 228 226 221 214 211 206 203 199 183 143 104 54 15 1 354 349 345 336
227 229 227 225 225 225 219 213 211 209 206 203 198 173 134 19 355 347 336 334 332 329
226 225 222 221 220 223 217 212 209 208 207 209 217 227 207 339 336 333 331 331 328 330
221 222 221 216 222 217 214 212 212 210 207 210 224 251 286 316 334 333 323 323 331 337
222 217 217 217 218 216 213 212 216 214 213 214 225 262 300 315 318 326 331 326 324 327